This is the latest recevied weather packets stored in our database for station/object SR9WXP. If no packets are shown the sender has not sent any weather packets the latest 10 day(s).
| Time | Temp. | Humidity | Pressure | Rain* | Wind** | Luminosity | Snow |
|---|---|---|---|---|---|---|---|
| 1787549452 | 9.44° C | 31% | 861.3 hPa | - | - | - | - |
| 1787549331 | 9.44° C | 31% | 861.2 hPa | - | - | - | - |
| 1787549207 | 9.44° C | 31% | 861.1 hPa | - | - | - | - |
| 1787549089 | 8.89° C | 31% | 861.1 hPa | - | - | - | - |
| 1787548968 | 8.89° C | 31% | 861.4 hPa | - | - | - | - |
| 1787548907 | 8.33° C | 31% | 861.5 hPa | - | - | - | - |
| 1787548848 | 8.89° C | 31% | 861.5 hPa | - | - | - | - |
| 1787548729 | 8.89° C | 31% | 861.5 hPa | - | - | - | - |
| 1787548604 | 8.89° C | 31% | 861.5 hPa | - | - | - | - |
| 1787548486 | 8.89° C | 31% | 861.4 hPa | - | - | - | - |
| 1787548366 | 8.89° C | 31% | 861.3 hPa | - | - | - | - |
| 1787548304 | 8.89° C | 31% | 861.2 hPa | - | - | - | - |
| 1787548246 | 8.33° C | 31% | 861.2 hPa | - | - | - | - |
| 1787548126 | 8.33° C | 31% | 861.2 hPa | - | - | - | - |
| 1787548001 | 8.33° C | 31% | 861.4 hPa | - | - | - | - |
| 1787547884 | 7.78° C | 31% | 861.5 hPa | - | - | - | - |
| 1787547762 | 8.33° C | 31% | 861.4 hPa | - | - | - | - |
| 1787547701 | 8.33° C | 31% | 861.5 hPa | - | - | - | - |
| 1787547642 | 8.33° C | 31% | 861.5 hPa | - | - | - | - |
| 1787547523 | 8.33° C | 31% | 861.5 hPa | - | - | - | - |
| 1787547398 | 8.33° C | 31% | 861.4 hPa | - | - | - | - |
| 1787547280 | 7.78° C | 31% | 861.4 hPa | - | - | - | - |
| 1787547160 | 7.78° C | 31% | 861.4 hPa | - | - | - | - |
| 1787547098 | 7.78° C | 31% | 861.4 hPa | - | - | - | - |
| 1787547040 | 7.78° C | 31% | 861.4 hPa | - | - | - | - |
* Rain since midnight (hover to see other rain measurements)
** Current wind speed in m/s (hover to see current wind gust speed)